Regional Weather Roundup
Issued by NWS Newport/Morehead, NC

Current Version | Previous Version | Text Only | Print | Product List | Glossary Off
Versions: 1 2 3 4 5 6 7 8 9 10 11 12 13 14 15 16 17 18 19 20 21 22 23 24 25 26 27 28 29 30 31 32 33 34 35 36 37 38 39 40 41 42 43 44 45 46 47 48 49 50

000
ASUS42 KMHX 172112
RWRMHX
WEATHER ROUNDUP FOR EASTERN NORTH CAROLINA
NATIONAL WEATHER SERVICE NEWPORT/MOREHEAD CITY NC
500 PM EDT FRI APR 17 2015

NOTE: "FAIR" INDICATES FEW OR NO CLOUDS BELOW 12,000 FEET
WITH NO SIGNIFICANT WEATHER AND/OR OBSTRUCTIONS TO VISIBILITY

NCZ015>017-031-032-045>047-102-103-172200-
NORTH COAST

CITY           SKY/WX    TMP DP  RH WIND       PRES   REMARKS
EDENTON        MOSUNNY   76  62  62 S3        29.99F
ELIZABETH CITY MOSUNNY   76  61  59 CALM      29.99F
KITTY HAWK     PTCLDY    72  60  65 SE6       29.99F
MANTEO         CLOUDY    72  62  71 S9        30.01F

$$

NCZ045>047-081-094-103-104-172200-
CENTRAL COAST

CITY           SKY/WX    TMP DP  RH WIND       PRES   REMARKS
FRISCO         MOSUNNY   72  63  73 SE3       30.00F
SWANQUARTER      N/A     75 N/A N/A S12       29.97S

$$

NCZ095-097-098-100-101-172200-
SOUTHERN COAST

CITY           SKY/WX    TMP DP  RH WIND       PRES   REMARKS
BEAUFORT       PTSUNNY   75  63  66 E8        30.00F
CEDAR ISLAND     N/A     75 N/A N/A SE7G13    30.06S
JACKSONVILLE   CLOUDY    75  63  66 SE9       29.99F
PINEY ISLAND   MOCLDY   N/A N/A N/A S7        30.00F
WILMINGTON     CLOUDY    75  65  70 E9        29.99F


$$

NCZ011>013-027>030-043-044-078>080-089-090>093-098-172200-
COASTAL PLAIN

CITY           SKY/WX    TMP DP  RH WIND       PRES   REMARKS
AHOSKIE        MOSUNNY   74  63  66 CALM      29.99S
CLINTON        MOSUNNY   77  66  69 NE3       30.00F
ELIZABETHTOWN  PTSUNNY   75  64  69 CALM      30.00F
GOLDSBORO      MOSUNNY   76  64  67 CALM      29.98F
GREENVILLE     MOSUNNY   77  64  65 W3        30.02S
HAVELOCK       CLOUDY    75  62  64 S5        30.01F
KENANSVILLE    MOSUNNY   75  63  65 SW3       30.01F
KINSTON        MOSUNNY   77  63  61 MISG      30.01S
NEW BERN       CLOUDY    76  63  64 S6        30.01F
RICHLANDS      PTSUNNY   79  61  53 S3        30.01S
ROCKY MOUNT    PTSUNNY   78  63  59 E3        29.99F
WASHINGTON     MOSUNNY   76  63  64 SE3       30.00F
WHITEVILLE     LGT RAIN  74  65  75 E3        30.00F

$$

AMZ130-135-150-152-154-156-158-170-250-252-270-ANZ085-086-088-633-658-670-172200-
MARINE OBSERVATIONS

STATION/POSITION TIME  TEMP    WIND        PRES    WAVE   SWELL
                       AIR SEA DIR/SP/G            HT/PER HT/PER
                 (UTC) (F)     (DEG/KT/KT) (MB)    (FT/S) (FT/S)
CHESAPEAKE LIGHT 2000   59     170/ 18/ 19 1016.4
64 E VA BEACH    2050   62 57  190/  4/  4 1016.4    5/ 7   5/ 7
DUCK             2030   60 53  140/  7/  9 1015.3
2 E DUCK         2011      56                N/A     4/ 7   2/11
10 NE DUCK       NOT AVBL
OREGON INLET     2000   68 59  100/  6/  9 1016.8
HATTERAS CG      2000          180/  3/  5   N/A
DIAMOND BUOY     2050   72 75  200/  4/  4 1015.9    6/ 8   7/ 8
CAPE LOOKOUT     2100   69     110/  5/  6 1015.6
BEAUFORT LAB     2000          120/  9/ 11   N/A
27 SE WRIGHTSVLE 2000   71 73  110/  6/  8   N/A
5 SE WRIGHTSVLE  2000   65 63   60/  6/  8 1016.4
225 S CAPE HAT   2050   72 73  240/  8/ 12 1015.5    6/10   7/10
41 SE CHARLESTON 2050   71 75   10/ 12/ 14 1014.3    5/ 9   5/ 9

$$


USA.gov is the U.S. government's official web portal to all federal, state and local government web resources and services.